Onweer radar Meer informatie blitzortung!


Regen radar Meer informatie rain snow radar


Bezoek onze andere website:

Template documentation
and downloads

And another site



15 daagse weersverwachting Bradford (GB)

  • Overzicht
  • Per uur
  • 15 dagen
  • Extra
  • Vergelijk
  • Kaarten
  • Dagkaart
  • Meer »
  • Info
  • Statistieken
  • Directe link
    Temp 6h Neerslag Wind  
 04:37     21:40    Daglengte: 17:03 Vandaag
19:00
16°
 
5
 04:37     21:40    Daglengte: 17:03 Morgen
01:00
13°
0.4 mm
7
07:00
13°
 
5
13:00
15°
 
6
19:00
16°
 
5
 04:37     21:41    Daglengte: 17:04 Dinsdag 18 Jun
01:00
12°
 
3
07:00
12°
 
4
13:00
17°
 
4
19:00
16°
 
1
 04:37     21:41    Daglengte: 17:04 Woensdag 19 Jun
01:00
13°
2.9 mm
1
07:00
12°
7.4 mm
3
13:00
13°
12.5 mm
2
Locatie info
Region: England
Latitude: 53.7957°N
Longitude: -1.7583°E
110 masl
Postcode: BD1 2
Temp/Neerslag /Baro Onweer/Dauwpunt
    Temp Baro 1h Neerslag Dauwpunt Wind UV Bewolking  
 04:37     21:40    Daglengte: 17:03 Vandaag
18:00
16°
1011.9 hPa
48%
8.5°
6
Windvlaag: 5.1 m/s
53%
19:00
16°
1011.9 hPa
82%
8.9°
5
Windvlaag: 4.9 m/s
74%
20:00
14°
1011.9 hPa 0.4 mm
82%
9.7°
5
Windvlaag: 5.6 m/s
76%
21:00
14°
1012.0 hPa
82%
10.1°
5
Windvlaag: 4.6 m/s
77%
22:00
14°
1012.2 hPa
75%
10.3°
6
Windvlaag: 5.8 m/s
73%
23:00
13°
1012.1 hPa
30%
9.8°
6
Windvlaag: 6 m/s
80%
 04:37     21:40    Daglengte: 17:03 Morgen
00:00
13°
1012.1 hPa
67%
9.8°
6
Windvlaag: 6.2 m/s
82%
01:00
13°
1012.1 hPa
80%
9.6°
7
Windvlaag: 6.3 m/s
69%
02:00
13°
1012.2 hPa
82%
9.7°
6
Windvlaag: 6.2 m/s
76%
03:00
13°
1012.1 hPa
82%
10.0°
6
Windvlaag: 6.5 m/s
85%
04:00
13°
1012.1 hPa
82%
10.2°
6
Windvlaag: 6.5 m/s
83%
05:00
13°
1012.2 hPa
82%
10.4°
5
Windvlaag: 5.8 m/s
65%
06:00
13°
1012.5 hPa
82%
10.3°
6
Windvlaag: 4.7 m/s
71%
07:00
13°
1012.7 hPa
73%
10.6°
5
Windvlaag: 4.1 m/s
74%
08:00
14°
1012.8 hPa
17%
10.6°
6
Windvlaag: 4.1 m/s
80%
09:00
14°
1012.9 hPa
21%
11.2°
6
Windvlaag: 4.5 m/s
63%
10:00
15°
1013.2 hPa
19%
11.3°
6
Windvlaag: 4.6 m/s
73%
11:00
15°
1013.4 hPa
24%
11.3°
6
Windvlaag: 4.6 m/s
72%
12:00
15°
1013.6 hPa
39%
10.9°
6
Windvlaag: 4.5 m/s
89%
13:00
15°
1013.6 hPa
78%
11.5°
6
Windvlaag: 4.7 m/s
84%
14:00
15°
1013.6 hPa
70%
11.9°
6
Windvlaag: 4.6 m/s
69%
15:00
16°
1013.3 hPa
25%
12.0°
6
Windvlaag: 4 m/s
71%
16:00
16°
1013.4 hPa
23%
11.7°
6
Windvlaag: 3.7 m/s
62%
17:00
16°
1013.2 hPa
16%
11.3°
6
Windvlaag: 4.6 m/s
43%
18:00
16°
1013.1 hPa
15%
11.5°
6
Windvlaag: 4.6 m/s
25%
19:00
16°
1013.1 hPa
14%
12.1°
5
Windvlaag: 4.5 m/s
40%
20:00
15°
1013.1 hPa
14%
12.0°
5
Windvlaag: 4.5 m/s
19%
21:00
15°
1013.4 hPa
14%
11.6°
4
Windvlaag: 3.9 m/s
12%
22:00
14°
1013.8 hPa
14%
11.3°
3
Windvlaag: 3 m/s
18%
23:00
13°
1014.0 hPa
14%
10.9°
3
Windvlaag: 2.3 m/s
12%
 04:37     21:41    Daglengte: 17:04 Dinsdag 18 Jun
00:00
12°
1014.0 hPa
14%
10.6°
3
Windvlaag: 2.3 m/s
11%
01:00
12°
1014.0 hPa
14%
10.3°
3
Windvlaag: 2.8 m/s
24%
02:00
11°
1014.0 hPa
14%
10.0°
3
Windvlaag: 3.1 m/s
50%
03:00
11°
1013.9 hPa
14%
9.7°
3
Windvlaag: 3.1 m/s
49%
04:00
11°
1013.7 hPa
14%
9.5°
3
Windvlaag: 2.9 m/s
73%
05:00
11°
1013.6 hPa
14%
9.4°
3
Windvlaag: 2.8 m/s
78%
06:00
11°
1013.8 hPa
14%
9.4°
3
Windvlaag: 2.2 m/s
66%
07:00
12°
1013.8 hPa
14%
9.5°
4
Windvlaag: 2.2 m/s
64%
08:00
13°
1013.9 hPa
14%
9.3°
4
Windvlaag: 2.2 m/s
61%
09:00
14°
1013.8 hPa
14%
9.0°
4
Windvlaag: 2.5 m/s
42%
10:00
15°
1013.7 hPa
14%
9.1°
4
Windvlaag: 2.5 m/s
58%
11:00
16°
1013.5 hPa
14%
8.8°
4
Windvlaag: 2.5 m/s
71%
12:00
17°
1013.3 hPa
15%
8.9°
5
Windvlaag: 2.8 m/s
74%
13:00
17°
1013.1 hPa
14%
9.1°
4
Windvlaag: 2.9 m/s
73%
14:00
18°
1012.7 hPa
14%
9.7°
4
Windvlaag: 2.7 m/s
72%
15:00
18°
1012.4 hPa
14%
9.5°
4
Windvlaag: 2 m/s
71%
16:00
17°
1012.2 hPa
23%
10.7°
3
Windvlaag: 1.3 m/s
91%
17:00
17°
1011.9 hPa
24%
11.5°
3
Windvlaag: 0.5 m/s
82%
18:00
17°
1011.6 hPa
34%
12.2°
2
Windvlaag: 0.2 m/s
92%
19:00
16°
1011.5 hPa
98%
13.3°
1
Windvlaag: 0.1 m/s
94%
20:00
16°
1011.3 hPa 0.4 mm
100%
13.4°
1
Windvlaag: -0.1 m/s
94%
21:00
15°
1011.3 hPa
100%
13.1°
1
Windvlaag: 0 m/s
93%
22:00
14°
1011.4 hPa 0.6 mm
100%
12.6°
1
Windvlaag: 0.1 m/s
99%
23:00
14°
1011.1 hPa 0.6 mm
100%
12.4°
1
Windvlaag: -0.2 m/s
93%
 04:37     21:41    Daglengte: 17:04 Woensdag 19 Jun
00:00
13°
1010.7 hPa 0.8 mm
100%
12.5°
1
Windvlaag: -0.2 m/s
93%
01:00
13°
1010.2 hPa 0.6 mm
100%
12.2°
1
Windvlaag: -0.3 m/s
98%
02:00
13°
1009.7 hPa 1.0 mm
100%
12.1°
1
Windvlaag: -0.5 m/s
93%
03:00
12°
1009.2 hPa 1.5 mm
100%
11.8°
2
Windvlaag: -0.5 m/s
93%
04:00
12°
1008.6 hPa 1.3 mm
100%
11.6°
2
Windvlaag: -0.5 m/s
99%
05:00
12°
1008.2 hPa 1.3 mm
100%
11.2°
2
Windvlaag: -0.8 m/s
99%
06:00
12°
1007.8 hPa 1.2 mm
100%
10.8°
2
Windvlaag: -1.1 m/s
99%
07:00
12°
1007.6 hPa 1.1 mm
100%
10.4°
3
Windvlaag: -1.3 m/s
100%
08:00
12°
1007.5 hPa 1.3 mm
100%
9.9°
3
Windvlaag: -3 m/s
98%
09:00
13°
1007.2 hPa 2.7 mm
100%
9.5°
3
Windvlaag: -3.4 m/s
94%
10:00
13°
1006.9 hPa 2.1 mm
100%
9.1°
3
Windvlaag: -3.2 m/s
96%
11:00
13°
1006.7 hPa 2.1 mm
100%
8.3°
3
Windvlaag: -3.1 m/s
95%
12:00
13°
1006.6 hPa 1.9 mm
100%
7.7°
2
Windvlaag: -2.6 m/s
94%
13:00
13°
1006.5 hPa 2.2 mm
100%
7.2°
2
Windvlaag: -1 m/s
93%
14:00
15°
1005.8 hPa 3.2 mm
100%
8.6°
2
Windvlaag: 8 m/s
79%
15:00
16°
1005.7 hPa 3.1 mm
100%
8.9°
3
Windvlaag: 7.6 m/s
71%
16:00
15°
1005.7 hPa 3.4 mm
100%
8.7°
3
Windvlaag: 8.5 m/s
74%
17:00
16°
1005.7 hPa 3.2 mm
100%
8.9°
3
Windvlaag: 7.1 m/s
61%
Temp/Neerslag /Baro Onweer/Dauwpunt
    Temp Baro Neerslag Dauwpunt Wind Bewolking  
 04:37     21:40    Daglengte: 17:03 Vandaag
19:00
16°
1011.9 hPa   8.9°
5
74%
22:00
14°
1012.2 hPa 0.4 mm 10.3°
6
73%
 04:37     21:40    Daglengte: 17:03 Morgen
01:00
13°
1012.1 hPa   9.6°
7
69%
04:00
13°
1012.1 hPa   10.2°
6
83%
07:00
13°
1012.7 hPa   10.6°
5
74%
10:00
15°
1013.2 hPa   11.3°
6
73%
13:00
15°
1013.6 hPa   11.5°
6
84%
16:00
16°
1013.4 hPa   11.7°
6
62%
19:00
16°
1013.1 hPa   12.1°
5
40%
22:00
14°
1013.8 hPa   11.3°
3
18%
 04:37     21:41    Daglengte: 17:04 Dinsdag 18 Jun
01:00
12°
1014.0 hPa   10.3°
3
24%
04:00
11°
1013.7 hPa   9.5°
3
73%
07:00
12°
1013.8 hPa   9.5°
4
64%
10:00
15°
1013.7 hPa   9.1°
4
58%
13:00
17°
1013.1 hPa   9.1°
4
73%
16:00
17°
1012.2 hPa   10.7°
3
91%
19:00
16°
1011.5 hPa   13.3°
1
94%
22:00
14°
1011.4 hPa 1.0 mm 12.6°
1
99%
 04:37     21:41    Daglengte: 17:04 Woensdag 19 Jun
01:00
13°
1010.2 hPa 1.9 mm 12.2°
1
98%
04:00
12°
1008.6 hPa 3.8 mm 11.6°
2
99%
07:00
12°
1007.6 hPa 3.6 mm 10.4°
3
100%
10:00
13°
1006.9 hPa 6.2 mm 9.1°
3
96%
13:00
13°
1006.5 hPa 6.3 mm 7.2°
2
93%
16:00
15°
1005.7 hPa 9.7 mm 8.7°
3
74%
19:00
16°
1005.7 hPa 9.3 mm 8.9°
4
38%
22:00
12°
1007.7 hPa 15.8 mm 9.5°
3
27%
 04:37     21:41    Daglengte: 17:04 Donderdag 20 Jun
01:00
11°
1008.0 hPa 15.8 mm 9.1°
3
24%
04:00
11°
1008.1 hPa 15.8 mm 9.2°
4
42%
07:00
11°
1008.2 hPa 15.8 mm 9.2°
5
59%
10:00
13°
1008.6 hPa 15.9 mm 9.1°
5
49%
13:00
15°
1009.0 hPa 15.9 mm 8.7°
6
39%
16:00
14°
1009.5 hPa 16.2 mm 7.6°
6
20%
19:00
13°
1010.1 hPa 16.5 mm 6.2°
6
2%
22:00
11°
1011.7 hPa 16.5 mm 7.1°
5
8%
 04:38     21:41    Daglengte: 17:03 Vrijdag 21 Jun
01:00
Voelt als: 7.0°
1013.2 hPa 16.5 mm 7.5°
4
13%
04:00
10°
Voelt als: 7.7°
1014.1 hPa 16.5 mm 7.7°
4
11%
07:00
11°
1015.1 hPa 16.5 mm 8.0°
4
10%
10:00
13°
1016.5 hPa 16.7 mm 7.1°
5
26%
13:00
14°
1017.9 hPa 17.0 mm 5.6°
6
42%
16:00
14°
1019.0 hPa 17.0 mm 5.7°
6
56%
19:00
13°
1020.2 hPa 17.0 mm 5.7°
5
69%
22:00
11°
1021.7 hPa 17.0 mm 6.6°
4
37%
 04:38     21:42    Daglengte: 17:04 Zaterdag 22 Jun
01:00
Voelt als: 6.8°
1023.0 hPa 17.0 mm 6.8°
3
6%
04:00
10°
Voelt als: 8.5°
1023.6 hPa 17.0 mm 7.5°
2
17%
07:00
11°
1024.2 hPa 17.0 mm 8.4°
2
29%
10:00
13°
1024.6 hPa 17.0 mm 8.3°
2
60%
13:00
16°
1024.9 hPa 17.0 mm 7.9°
2
92%
16:00
16°
1024.5 hPa 17.1 mm 8.4°
2
91%
19:00
16°
1024.1 hPa 17.3 mm 8.8°
2
91%
22:00
13°
1024.9 hPa 17.5 mm 9.3°
2
75%
 04:38     21:42    Daglengte: 17:04 Zondag 23 Jun
01:00
11°
1025.5 hPa 17.6 mm 9.2°
2
59%
04:00
11°
1025.3 hPa 18.0 mm 9.6°
2
51%
07:00
11°
1025.1 hPa 18.2 mm 9.9°
2
42%
10:00
14°
1024.8 hPa 18.2 mm 9.5°
3
67%
13:00
16°
1024.4 hPa 18.3 mm 8.4°
4
92%
16:00
16°
1023.9 hPa   8.5°
4
91%
19:00
15°
1023.5 hPa 37.5 mm 8.7°
4
90%
 04:39     21:42    Daglengte: 17:03 Maandag 24 Jun
01:00
11°
1024.0 hPa 41.8 mm 10.1°
3
65%
07:00
11°
1024.0 hPa 50.9 mm 9.4°
5
75%
13:00
15°
1024.3 hPa 58.6 mm 7.6°
6
91%
19:00
14°
1024.9 hPa 61.0 mm 7.7°
6
81%
 04:39     21:42    Daglengte: 17:03 Dinsdag 25 Jun
01:00
Voelt als: 7.5°
1026.4 hPa 61.9 mm 8.4°
3
12%
07:00
11°
1027.0 hPa 62.2 mm 8.8°
5
76%
13:00
17°
1027.0 hPa 63.7 mm 9.1°
5
46%
19:00
17°
1026.4 hPa 67.0 mm 9.0°
3
1%
 04:39     21:42    Daglengte: 17:03 Woensdag 26 Jun
01:00
12°
1027.7 hPa 69.0 mm 9.3°
1
27%
07:00
13°
1012.4 hPa 77.2 mm 10.4°
3
1%
13:00
16°
1022.8 hPa 0.4 mm 10.0°
4
53%
19:00
15°
1022.1 hPa 0.6 mm 10.2°
3
56%
 04:40     21:42    Daglengte: 17:02 Donderdag 27 Jun
01:00
Voelt als: 8.4°
1022.2 hPa 0.2 mm 7.6°
1
43%
07:00
11°
1020.8 hPa 0.2 mm 9.1°
2
45%
13:00
16°
1019.6 hPa 0.6 mm 10.4°
3
50%
19:00
16°
1018.0 hPa 1.3 mm 11.3°
2
62%
 04:41     21:41    Daglengte: 17:00 Vrijdag 28 Jun
01:00
10°
1017.6 hPa 0.8 mm 9.0°
1
50%
07:00
12°
1016.3 hPa 0.5 mm 10.1°
2
50%
13:00
17°
1015.7 hPa 0.7 mm 11.5°
4
58%
19:00
17°
1014.8 hPa 0.9 mm 11.7°
3
66%
 04:41     21:41    Daglengte: 17:00 Zaterdag 29 Jun
01:00
10°
1015.0 hPa 0.2 mm 9.1°
2
47%
07:00
12°
1014.2 hPa 0.4 mm 10.5°
2
48%
13:00
18°
1013.5 hPa 0.5 mm 12.1°
3
58%
19:00
17°
1012.6 hPa 1.3 mm 12.6°
3
63%
 04:42     21:41    Daglengte: 16:59 Zondag 30 Jun
01:00
11°
1012.9 hPa 0.7 mm 10.0°
1
51%
07:00
12°
1011.8 hPa 0.6 mm 10.2°
2
52%
13:00
17°
1011.1 hPa 1.3 mm 11.8°
3
62%
19:00
16°
1010.8 hPa 2.3 mm 12.1°
4
66%
 04:43     21:41    Daglengte: 16:58 Maandag 01 Jul
01:00
10°
1011.7 hPa 0.6 mm 9.0°
3
48%
07:00
11°
1011.7 hPa 0.7 mm 10.0°
3
40%
13:00
17°
1012.1 hPa 0.9 mm 11.2°
4
48%
  CAPE Lifted Index Hail Supercell Tornado SRH 3km CL BTM PRES CL TOP PRES Swiss DWD icon SMHI TS
 04:37     21:40    Daglengte: 17:03 Vandaag
18:00 128 J/kg 0.3 K 0 % 0 % 0 % 0 m²/s² 0 0 1.44 3
19:00 75 J/kg 0.3 K 0 % 0 % 0 % 0 m²/s² 0 0 0.45 80
20:00 62 J/kg 0.9 K 0 % 0 % 0 % 0 m²/s² 0 0 1.11 80
21:00 9 J/kg 1.5 K 0 % 0 % 0 % 0 m²/s² 0 0 1.92 3
22:00 32 J/kg 1.5 K 0 % 0 % 0 % 0 m²/s² 0 0 2.1 3
23:00 0 J/kg 2.9 K 0 % 0 % 0 % 0 m²/s² 0 0 4.22 3
 04:37     21:40    Daglengte: 17:03 Morgen
00:00 0 J/kg 2.8 K 0 % 0 % 0 % 0 m²/s² 0 0 3.43 3
01:00 0 J/kg 3.2 K 0 % 0 % 0 % 0 m²/s² 0 0 3.59 61
02:00 0 J/kg 3.4 K 0 % 0 % 0 % 0 m²/s² 0 0 3.79 61
03:00 0 J/kg 3.2 K 0 % 0 % 0 % 0 m²/s² 0 0 3.5 61
04:00 0 J/kg 2.5 K 0 % 0 % 0 % 0 m²/s² 0 0 2.89 3
05:00 0 J/kg 3.1 K 0 % 0 % 0 % 0 m²/s² 0 0 3.52 61
06:00 0 J/kg 3.4 K 0 % 0 % 0 % 0 m²/s² 0 0 3.91 61
07:00 1 J/kg 3.1 K 0 % 0 % 0 % 0 m²/s² 0 0 3.91 3
08:00 2 J/kg 3.0 K 0 % 0 % 0 % 0 m²/s² 0 0 3.72 3
09:00 41 J/kg 2.4 K 0 % 0 % 0 % 0 m²/s² 0 0 3.12 3
10:00 85 J/kg 1.8 K 0 % 0 % 0 % 0 m²/s² 0 0 2.76 3
11:00 120 J/kg 1.3 K 0 % 0 % 0 % 0 m²/s² 0 0 2.35 3
12:00 118 J/kg 1.4 K 0 % 0 % 0 % 0 m²/s² 0 0 2.03 3
13:00 60 J/kg 2.4 K 0 % 0 % 0 % 0 m²/s² 0 0 3.51 3
14:00 106 J/kg 1.8 K 0 % 0 % 0 % 0 m²/s² 0 0 3.57 3
15:00 110 J/kg 1.8 K 0 % 0 % 0 % 0 m²/s² 0 0 4.5 3
16:00 198 J/kg 0.7 K 0 % 0 % 0 % 0 m²/s² 0 0 3.55 2
17:00 154 J/kg 1.3 K 0 % 0 % 0 % 0 m²/s² 0 0 2.62 2
18:00 109 J/kg 1.4 K 0 % 0 % 0 % 0 m²/s² 0 0 4.19 2
19:00 177 J/kg 0.8 K 0 % 0 % 0 % 0 m²/s² 0 0 4.25 2
20:00 93 J/kg 1.8 K 0 % 0 % 0 % 0 m²/s² 0 0 5.64 0
21:00 21 J/kg 3.4 K 0 % 0 % 0 % 0 m²/s² 0 0 7.33 0
22:00 0 J/kg 5.4 K 0 % 0 % 0 % 0 m²/s² 0 0 9.66 0
23:00 0 J/kg 6.1 K 0 % 0 % 0 % 0 m²/s² 0 0 10.45 0
 04:37     21:41    Daglengte: 17:04 Dinsdag 18 Jun
00:00 0 J/kg 6.5 K 0 % 0 % 0 % 0 m²/s² 0 0 10.97 0
01:00 0 J/kg 6.3 K 0 % 0 % 0 % 0 m²/s² 0 0 10.56 3
02:00 0 J/kg 6.6 K 0 % 0 % 0 % 0 m²/s² 0 0 10.17 3
03:00 0 J/kg 7.0 K 0 % 0 % 0 % 0 m²/s² 0 0 8.95 3
04:00 0 J/kg 7.1 K 0 % 0 % 0 % 0 m²/s² 0 0 8.36 3
05:00 0 J/kg 6.3 K 0 % 0 % 0 % 0 m²/s² 0 0 7.68 3
06:00 0 J/kg 4.9 K 0 % 0 % 0 % 0 m²/s² 0 0 6.16 3
07:00 0 J/kg 4.9 K 0 % 0 % 0 % 0 m²/s² 0 0 6.1 3
08:00 0 J/kg 5.4 K 0 % 0 % 0 % 0 m²/s² 0 0 6.6 3
09:00 0 J/kg 5.7 K 0 % 0 % 0 % 0 m²/s² 0 0 7.23 1
10:00 0 J/kg 6.1 K 0 % 0 % 0 % 0 m²/s² 0 0 7.75 3
11:00 0 J/kg 6.0 K 0 % 0 % 0 % 0 m²/s² 0 0 8.1 3
12:00 1 J/kg 5.3 K 0 % 0 % 0 % 0 m²/s² 0 0 7.67 3
13:00 2 J/kg 4.6 K 0 % 0 % 0 % 0 m²/s² 0 0 6.88 3
14:00 2 J/kg 4.0 K 0 % 0 % 0 % 0 m²/s² 0 0 6.16 3
15:00 21 J/kg 3.5 K 0 % 0 % 0 % 0 m²/s² 0 0 5.33 3
16:00 19 J/kg 3.1 K 0 % 0 % 0 % 0 m²/s² 0 0 4.69 3
17:00 35 J/kg 2.9 K 0 % 0 % 0 % 0 m²/s² 0 0 3.77 3
18:00 52 J/kg 2.4 K 0 % 0 % 0 % 0 m²/s² 0 0 3.09 3
19:00 54 J/kg 2.4 K 0 % 0 % 0 % 0 m²/s² 0 0 3.09 3
20:00 64 J/kg 2.2 K 0 % 0 % 0 % 0 m²/s² 0 0 2.53 61
21:00 71 J/kg 2.1 K 0 % 0 % 0 % 0 m²/s² 0 0 2.49 61
22:00 99 J/kg 2.1 K 0 % 0 % 0 % 0 m²/s² 0 0 2.22 61
23:00 92 J/kg 1.8 K 0 % 0 % 0 % 0 m²/s² 0 0 2.13 61
 04:37     21:41    Daglengte: 17:04 Woensdag 19 Jun
00:00 114 J/kg 2.0 K 0 % 0 % 0 % 0 m²/s² 0 0 2.33 61
01:00 79 J/kg 2.3 K 0 % 0 % 0 % 0 m²/s² 0 0 2.42 61
02:00 27 J/kg 2.8 K 0 % 0 % 0 % 0 m²/s² 0 0 3.4 61
03:00 12 J/kg 2.7 K 0 % 0 % 0 % 0 m²/s² 0 0 3.54 61
04:00 17 J/kg 2.8 K 0 % 0 % 0 % 0 m²/s² 0 0 3.94 61
05:00 18 J/kg 2.9 K 0 % 0 % 0 % 0 m²/s² 0 0 3.98 61
06:00 1 J/kg 2.9 K 0 % 0 % 0 % 0 m²/s² 0 0 3.89 61
07:00 1 J/kg 3.0 K 0 % 0 % 0 % 0 m²/s² 0 0 3.48 61
08:00 0 J/kg 2.9 K 0 % 0 % 0 % 0 m²/s² 0 0 3.2 61
09:00 0 J/kg 2.7 K 0 % 0 % 0 % 0 m²/s² 0 0 2.94 61
10:00 1 J/kg 3.0 K 0 % 0 % 0 % 0 m²/s² 0 0 3.18 63
11:00 0 J/kg 3.0 K 0 % 0 % 0 % 0 m²/s² 0 0 3.03 63
12:00 2 J/kg 3.3 K 0 % 0 % 0 % 0 m²/s² 0 0 3.39 61
13:00 0 J/kg 4.0 K 0 % 0 % 0 % 0 m²/s² 0 0 4.21 61
14:00 6 J/kg 4.2 K 0 % 0 % 0 % 0 m²/s² 0 0 4.41 61
15:00 21 J/kg 4.8 K 0 % 0 % 0 % 0 m²/s² 0 0 5.28 61
16:00 1 J/kg 5.8 K 0 % 0 % 0 % 0 m²/s² 0 0 6.22 61
17:00 49 J/kg 4.7 K 0 % 0 % 0 % 0 m²/s² 0 0 5.48 61
Temp Baro Wind Neerslag
  EWN Forecast EWN WRFDA DWD ICON FMI HIRLAM MET Norway GFS
 04:37     21:40    Daglengte: 17:03 Vandaag
19:00 15.8° 1011.9 hPa 5.4 m/s 0.0 mm 16.1° 1011.5 hPa 7.4 m/s 1.7 mm 14.6° 1012.4 hPa 4.8 m/s -0.4 mm 16.8° 1011.8 hPa 6.1 m/s 0.0 mm 16.1° 1011.8 hPa 3.7 m/s 0.4 mm 16.2° 1011.7 hPa 5.4 m/s
22:00 13.8° 1012.2 hPa 5.5 m/s 0.4 mm 14.4° 1012.2 hPa 5.3 m/s 2.8 mm 13.3° 1013.0 hPa 4.4 m/s 0.5 mm 14.6° 1012.2 hPa 6.5 m/s 0.0 mm 13.9° 1011.6 hPa 5.3 m/s 0.4 mm 13.9° 1012.9 hPa 5.7 m/s
 04:37     21:40    Daglengte: 17:03 Morgen
01:00 12.9° 1012.1 hPa 6.5 m/s 0.0 mm 13.3° 1011.9 hPa 7.0 m/s 2.8 mm 12.6° 1013.2 hPa 4.7 m/s 0.1 mm 14.1° 1011.7 hPa 7.6 m/s 0.0 mm 12.8° 1012.0 hPa 6.1 m/s 0.0 mm 13.1° 1013.0 hPa 5.8 m/s
04:00 12.6° 1012.1 hPa 5.7 m/s 0.0 mm 12.5° 1011.5 hPa 6.8 m/s 2.8 mm 12.8° 1012.6 hPa 4.3 m/s 0.3 mm 13.8° 1011.6 hPa 5.8 m/s 0.0 mm 12.3° 1012.2 hPa 5.2 m/s 0.0 mm 12.7° 1012.4 hPa 6.2 m/s
07:00 13.2° 1012.7 hPa 5.3 m/s 0.0 mm 13.6° 1011.6 hPa 7.1 m/s 2.9 mm 13.1° 1012.8 hPa 5.0 m/s 0.4 mm 13.6° 1012.7 hPa 6.5 m/s 0.0 mm 13.3° 1012.7 hPa 4.4 m/s 0.0 mm 12.6° 1013.0 hPa 5.5 m/s
10:00 14.6° 1013.2 hPa 6.2 m/s 0.0 mm 15.3° 1012.4 hPa 6.6 m/s 3.0 mm 15.1° 1013.5 hPa 6.3 m/s 0.0 mm 16.1° 1013.2 hPa 6.5 m/s 0.0 mm 13.9° 1012.8 hPa 5.8 m/s 0.9 mm 12.8° 1013.3 hPa 5.1 m/s
13:00 15.1° 1013.6 hPa 6.0 m/s 0.0 mm 15.5° 1012.3 hPa 7.8 m/s 3.5 mm 15.4° 1013.6 hPa 5.8 m/s 0.1 mm 17.1° 1013.7 hPa 6.1 m/s 0.0 mm 14.6° 1013.3 hPa 6.0 m/s 1.1 mm 17.2° 1013.1 hPa 7.2 m/s
16:00 16.1° 1013.4 hPa 6.1 m/s 0.0 mm 18.1° 1011.9 hPa 7.3 m/s 3.6 mm 17.2° 1013.5 hPa 6.2 m/s 0.1 mm 17.0° 1013.5 hPa 6.2 m/s 0.0 mm 14.6° 1013.2 hPa 6.1 m/s 1.7 mm 17.7° 1012.6 hPa 7.3 m/s
19:00 15.8° 1013.1 hPa 5.0 m/s 0.0 mm 17.1° 1011.7 hPa 6.2 m/s 3.7 mm 16.6° 1013.1 hPa 4.8 m/s 0.0 mm 15.6° 1013.8 hPa 4.5 m/s 0.0 mm 15.3° 1012.9 hPa 4.8 m/s 0.0 mm 16.9° 1012.3 hPa 5.4 m/s
22:00 13.6° 1013.8 hPa 3.2 m/s 0.0 mm 14.0° 1012.6 hPa 3.1 m/s 4.0 mm 13.8° 1014.0 hPa 2.0 m/s 0.0 mm 15.0° 1014.3 hPa 3.7 m/s 0.0 mm 12.7° 1013.6 hPa 3.2 m/s 0.0 mm 13.0° 1013.6 hPa 3.9 m/s
 04:37     21:41    Daglengte: 17:04 Dinsdag 18 Jun
01:00 11.7° 1014.0 hPa 3.2 m/s 0.0 mm 12.1° 1013.3 hPa 4.3 m/s 4.0 mm 11.7° 1014.6 hPa 2.5 m/s 0.0 mm 14.1° 1014.0 hPa 3.9 m/s 0.0 mm 10.7° 1014.0 hPa 2.4 m/s 0.0 mm 11.4° 1013.9 hPa 4.0 m/s
04:00 10.8° 1013.7 hPa 2.9 m/s 0.0 mm 10.5° 1012.8 hPa 4.3 m/s 4.0 mm 10.8° 1014.1 hPa 1.8 m/s 0.0 mm 12.9° 1014.1 hPa 2.6 m/s 0.0 mm 10.1° 1013.7 hPa 2.6 m/s 0.0 mm 10.0° 1013.9 hPa 3.5 m/s
07:00 11.8° 1013.8 hPa 3.5 m/s 0.0 mm 11.9° 1012.3 hPa 3.6 m/s 4.0 mm 12.3° 1013.9 hPa 2.2 m/s 0.0 mm 13.3° 1013.9 hPa 3.3 m/s 0.0 mm 11.6° 1014.1 hPa 3.6 m/s 0.0 mm 11.6° 1013.7 hPa 3.3 m/s
10:00 15.2° 1013.7 hPa 4.0 m/s 0.0 mm 15.6° 1012.7 hPa 3.5 m/s 4.0 mm 15.8° 1013.8 hPa 4.8 m/s 0.0 mm 16.1° 1013.5 hPa 4.5 m/s 0.0 mm 15.0° 1013.8 hPa 3.2 m/s 0.0 mm 15.5° 1013.8 hPa 4.2 m/s
13:00 16.9° 1013.1 hPa 4.2 m/s 0.0 mm 18.5° 1011.8 hPa 3.9 m/s 4.0 mm 16.5° 1013.4 hPa 3.7 m/s 0.0 mm 18.0° 1012.9 hPa 5.0 m/s 0.0 mm 16.7° 1013.3 hPa 4.5 m/s 0.0 mm 18.3° 1013.2 hPa 3.7 m/s
16:00 17.1° 1012.2 hPa 2.9 m/s 0.0 mm 20.0° 1010.3 hPa 2.7 m/s 4.0 mm 17.4° 1012.5 hPa 3.4 m/s 0.0 mm 16.8° 1012.4 hPa 2.8 m/s 0.0 mm 18.9° 1012.2 hPa 3.1 m/s
19:00 16.3° 1011.5 hPa 1.4 m/s 0.0 mm 19.2° 1008.9 hPa 1.1 m/s 4.0 mm 16.8° 1011.7 hPa 1.7 m/s 0.0 mm 14.9° 1011.7 hPa 1.4 m/s 1.5 mm 17.5° 1011.4 hPa 1.9 m/s
22:00 14.0° 1011.4 hPa 1.1 m/s 1.0 mm 16.8° 1009.0 hPa 1.5 m/s 4.4 mm 13.8° 1011.5 hPa 1.7 m/s 1.1 mm 13.6° 1011.5 hPa 1.0 m/s 0.4 mm 14.8° 1011.6 hPa 0.9 m/s
 04:37     21:41    Daglengte: 17:04 Woensdag 19 Jun
01:00 13.0° 1010.2 hPa 1.1 m/s 1.9 mm 15.5° 1007.7 hPa 3.3 m/s 6.4 mm 12.8° 1010.1 hPa 0.9 m/s 1.3 mm 12.5° 1010.4 hPa 0.7 m/s 0.8 mm 14.0° 1010.2 hPa 1.0 m/s
04:00 12.3° 1008.6 hPa 1.8 m/s 3.8 mm 14.3° 1006.1 hPa 2.0 m/s 8.5 mm 12.1° 1007.9 hPa 2.6 m/s 4.7 mm 12.2° 1009.0 hPa 1.7 m/s 1.2 mm 13.2° 1008.8 hPa 2.3 m/s
07:00 11.9° 1007.6 hPa 2.8 m/s 3.6 mm 12.7° 1005.3 hPa 3.6 m/s 10.2 mm 11.9° 1006.1 hPa 3.3 m/s 3.8 mm 11.8° 1008.5 hPa 2.2 m/s 1.9 mm 12.6° 1007.4 hPa 2.3 m/s
10:00 13.1° 1006.9 hPa 2.7 m/s 6.2 mm 13.0° 1005.3 hPa 3.6 m/s 12.1 mm 12.2° 1004.6 hPa 2.8 m/s 5.7 mm 14.3° 1008.1 hPa 1.9 m/s 13.0° 1006.8 hPa 2.9 m/s
13:00 13.5° 1006.5 hPa 2.3 m/s 6.3 mm 12.0° 1004.4 hPa 4.3 m/s 18.8 mm 12.8° 1003.6 hPa 2.2 m/s 4.4 mm 16.9° 1007.8 hPa 1.6 m/s 13.0° 1005.4 hPa 1.6 m/s
16:00 15.3° 1005.7 hPa 3.1 m/s 9.7 mm 14.2° 1004.1 hPa 5.8 m/s 27.2 mm 13.3° 1003.7 hPa 3.2 m/s 1.0 mm 16.6° 1007.5 hPa 2.5 m/s 14.4° 1004.5 hPa 1.0 m/s
19:00 15.7° 1005.7 hPa 3.9 m/s 9.3 mm 15.5° 1004.2 hPa 6.4 m/s 27.5 mm 13.5° 1004.3 hPa 3.8 m/s 0.2 mm 16.4° 1007.2 hPa 3.5 m/s 13.5° 1004.8 hPa 3.3 m/s
22:00 12.5° 1007.7 hPa 3.2 m/s 15.8 mm 12.5° 1007.8 hPa 3.1 m/s 11.6° 1006.5 hPa 4.4 m/s 15.8 mm
 04:37     21:41    Daglengte: 17:04 Donderdag 20 Jun
01:00 10.6° 1008.0 hPa 3.0 m/s 15.8 mm 10.6° 1008.1 hPa 2.9 m/s 10.0° 1006.5 hPa 3.8 m/s 15.8 mm
04:00 10.9° 1008.1 hPa 3.8 m/s 15.8 mm 10.9° 1008.2 hPa 3.7 m/s 10.2° 1007.2 hPa 4.8 m/s 15.8 mm
07:00 11.3° 1008.2 hPa 4.6 m/s 15.8 mm 11.3° 1008.2 hPa 4.5 m/s 11.2° 1007.9 hPa 5.4 m/s 15.8 mm
10:00 13.1° 1008.6 hPa 5.3 m/s 15.9 mm 13.1° 1008.6 hPa 5.2 m/s 13.9° 1008.6 hPa 6.4 m/s 15.9 mm
13:00 14.9° 1009.0 hPa 5.9 m/s 15.9 mm 14.8° 1009.0 hPa 5.8 m/s 15.9° 1008.7 hPa 6.6 m/s 15.9 mm
16:00 14.2° 1009.5 hPa 5.7 m/s 16.2 mm 14.1° 1009.6 hPa 5.7 m/s 16.3° 1008.7 hPa 5.2 m/s 16.2 mm
19:00 13.4° 1010.1 hPa 5.6 m/s 16.5 mm 13.3° 1010.2 hPa 5.6 m/s 14.4° 1009.1 hPa 5.7 m/s 16.5 mm
22:00 11.2° 1011.7 hPa 4.5 m/s 16.5 mm 11.2° 1011.8 hPa 4.7 m/s 11.5° 1010.4 hPa 3.4 m/s 16.5 mm
 04:38     21:41    Daglengte: 17:03 Vrijdag 21 Jun
01:00 9.1° 1013.2 hPa 3.7 m/s 16.5 mm 9.0° 1013.4 hPa 3.7 m/s 10.2° 1010.9 hPa 4.3 m/s 16.5 mm
04:00 9.8° 1014.1 hPa 4.1 m/s 16.5 mm 9.8° 1014.3 hPa 4.1 m/s 9.3° 1011.6 hPa 4.1 m/s 16.5 mm
07:00 10.6° 1015.1 hPa 4.4 m/s 16.5 mm 10.6° 1015.3 hPa 4.4 m/s 10.9° 1012.4 hPa 4.1 m/s 16.5 mm
10:00 12.5° 1016.5 hPa 5.4 m/s 16.7 mm 12.4° 1016.8 hPa 5.5 m/s 13.8° 1013.5 hPa 4.6 m/s 16.7 mm
13:00 14.3° 1017.9 hPa 6.4 m/s 17.0 mm 14.2° 1018.2 hPa 6.5 m/s 15.8° 1014.1 hPa 5.9 m/s 17.0 mm
16:00 13.8° 1019.0 hPa 5.8 m/s 17.0 mm 13.6° 1019.4 hPa 5.8 m/s 15.8° 1015.1 hPa 6.2 m/s 17.0 mm
19:00 13.2° 1020.2 hPa 5.1 m/s 17.0 mm 13.1° 1020.6 hPa 5.1 m/s 14.1° 1016.1 hPa 5.0 m/s 17.0 mm
22:00 10.8° 1021.7 hPa 3.9 m/s 17.0 mm 10.8° 1022.0 hPa 4.0 m/s 10.6° 1018.2 hPa 2.6 m/s 17.0 mm
 04:38     21:42    Daglengte: 17:04 Zaterdag 22 Jun
01:00 8.5° 1023.0 hPa 2.9 m/s 17.0 mm 8.5° 1023.4 hPa 3.0 m/s 9.0° 1019.2 hPa 2.2 m/s 17.0 mm
04:00 9.6° 1023.6 hPa 2.3 m/s 17.0 mm 9.7° 1024.0 hPa 2.4 m/s 8.3° 1019.6 hPa 1.6 m/s 17.0 mm
07:00 10.9° 1024.2 hPa 1.7 m/s 17.0 mm 10.9° 1024.6 hPa 1.7 m/s 10.7° 1020.4 hPa 1.1 m/s 17.0 mm
10:00 13.4° 1024.6 hPa 1.7 m/s 17.0 mm 13.2° 1024.9 hPa 1.8 m/s 16.2° 1020.5 hPa 0.7 m/s 17.0 mm
13:00 15.7° 1024.9 hPa 1.8 m/s 17.0 mm 15.4° 1025.3 hPa 1.8 m/s 19.0° 1020.1 hPa 1.8 m/s 17.0 mm
16:00 15.6° 1024.5 hPa 1.8 m/s 17.1 mm 15.4° 1024.9 hPa 1.8 m/s 17.8° 1019.3 hPa 2.7 m/s 17.1 mm
19:00 15.7° 1024.1 hPa 1.8 m/s 17.3 mm 15.5° 1024.6 hPa 1.7 m/s 17.5° 1018.9 hPa 2.8 m/s 17.3 mm
22:00 13.4° 1024.9 hPa 1.9 m/s 17.5 mm 13.3° 1025.3 hPa 1.8 m/s 13.6° 1019.6 hPa 3.5 m/s 17.5 mm
 04:38     21:42    Daglengte: 17:04 Zondag 23 Jun
01:00 11.3° 1025.5 hPa 1.9 m/s 17.6 mm 11.2° 1026.1 hPa 1.8 m/s 12.1° 1019.2 hPa 2.6 m/s 17.6 mm
04:00 11.3° 1025.3 hPa 1.9 m/s 18.0 mm 11.2° 1025.9 hPa 1.8 m/s 11.4° 1018.3 hPa 2.7 m/s 18.0 mm
07:00 11.4° 1025.1 hPa 1.9 m/s 18.2 mm 11.3° 1025.8 hPa 1.8 m/s 11.9° 1017.8 hPa 2.8 m/s 18.2 mm
10:00 13.7° 1024.8 hPa 2.9 m/s 18.2 mm 13.6° 1025.4 hPa 2.9 m/s 15.4° 1017.3 hPa 3.4 m/s 18.2 mm
13:00 16.0° 1024.4 hPa 4.0 m/s 18.3 mm 15.8° 1025.1 hPa 4.0 m/s 18.5° 1016.5 hPa 4.5 m/s 18.3 mm
16:00 15.5° 1023.9 hPa 4.0 m/s 18.5 mm 15.1° 1024.8 hPa 4.0 m/s 20.1° 1014.4 hPa 4.5 m/s 18.5 mm
19:00 14.7° 1023.5 hPa 4.1 m/s 19.0 mm 14.4° 1024.5 hPa 4.0 m/s 18.1° 1013.0 hPa 5.5 m/s 19.0 mm
 04:39     21:42    Daglengte: 17:03 Maandag 24 Jun
01:00 11.0° 1024.0 hPa 3.2 m/s 22.3 mm 10.7° 1025.2 hPa 3.2 m/s 14.5° 1011.1 hPa 3.2 m/s 22.3 mm
07:00 11.2° 1024.0 hPa 5.1 m/s 26.1 mm 11.0° 1025.5 hPa 5.3 m/s 13.6° 1007.0 hPa 3.1 m/s 26.1 mm
13:00 14.6° 1024.3 hPa 6.0 m/s 30.0 mm 14.3° 1026.2 hPa 6.1 m/s 18.2° 1003.9 hPa 4.6 m/s 30.0 mm
19:00 14.1° 1024.9 hPa 5.8 m/s 30.7 mm 13.7° 1027.0 hPa 5.8 m/s 18.3° 1002.2 hPa 5.9 m/s 30.7 mm
 04:39     21:42    Daglengte: 17:03 Dinsdag 25 Jun
01:00 9.3° 1026.4 hPa 3.3 m/s 30.9 mm 8.8° 1028.7 hPa 3.3 m/s 14.7° 1001.7 hPa 3.4 m/s 30.9 mm
07:00 10.9° 1027.0 hPa 4.6 m/s 31.2 mm 10.5° 1029.3 hPa 4.6 m/s 15.0° 1001.3 hPa 4.1 m/s 31.2 mm
13:00 17.1° 1027.0 hPa 4.6 m/s 31.9 mm 17.2° 1029.2 hPa 4.6 m/s 16.0° 1002.4 hPa 4.7 m/s 31.9 mm
19:00 17.3° 1026.4 hPa 3.3 m/s 33.6 mm 17.4° 1028.5 hPa 3.0 m/s 15.7° 1003.8 hPa 6.7 m/s 33.6 mm
 04:39     21:42    Daglengte: 17:03 Woensdag 26 Jun
01:00 12.4° 1027.7 hPa 0.9 m/s 35.3 mm 12.3° 1029.5 hPa 0.7 m/s 13.2° 1007.7 hPa 2.6 m/s 35.3 mm
07:00 13.1° 1012.4 hPa 3.4 m/s 39.2 mm 13.1° 1012.4 hPa 3.4 m/s 39.2 mm
13:00 15.6° 1022.8 hPa 3.7 m/s 0.4 mm
19:00 15.4° 1022.1 hPa 3.4 m/s 0.6 mm
 04:40     21:42    Daglengte: 17:02 Donderdag 27 Jun
01:00 8.9° 1022.2 hPa 1.5 m/s 0.2 mm
07:00 10.8° 1020.8 hPa 2.1 m/s 0.2 mm
13:00 16.5° 1019.6 hPa 2.7 m/s 0.6 mm
19:00 15.9° 1018.0 hPa 2.2 m/s 1.3 mm
 04:41     21:41    Daglengte: 17:00 Vrijdag 28 Jun
01:00 10.1° 1017.6 hPa 1.4 m/s 0.8 mm
07:00 11.5° 1016.3 hPa 2.3 m/s 0.5 mm
13:00 16.5° 1015.7 hPa 3.5 m/s 0.7 mm
19:00 16.5° 1014.8 hPa 3.0 m/s 0.9 mm
 04:41     21:41    Daglengte: 17:00 Zaterdag 29 Jun
01:00 10.3° 1015.0 hPa 2.0 m/s 0.2 mm
07:00 12.3° 1014.2 hPa 2.1 m/s 0.4 mm
13:00 18.0° 1013.5 hPa 3.1 m/s 0.5 mm
19:00 17.4° 1012.6 hPa 2.9 m/s 1.3 mm
 04:42     21:41    Daglengte: 16:59 Zondag 30 Jun
01:00 11.3° 1012.9 hPa 1.5 m/s 0.7 mm
07:00 11.8° 1011.8 hPa 2.0 m/s 0.6 mm
13:00 16.9° 1011.1 hPa 3.2 m/s 1.3 mm
19:00 16.1° 1010.8 hPa 3.6 m/s 2.3 mm
 04:43     21:41    Daglengte: 16:58 Maandag 01 Jul
01:00 10.4° 1011.7 hPa 2.7 m/s 0.6 mm
07:00 11.4° 1011.7 hPa 3.1 m/s 0.7 mm
13:00 16.8° 1012.1 hPa 4.3 m/s 0.9 mm
FMI Hirlam - 7.5 km EWN WRFDA - 12 km DWD ICON - 7 km GFS - 25 km Basiskaart






























































Updatetijd (Europe/Amsterdam) Resolutie Lengte Stap
FMI Hirlam 13:00, 19:00, 01:00, 07:00 7.5 km 49h 1h
EWN WRFDA 16:15, 22:15, 04:15, 10:15 12 km 73h 1h
DWD ICON 18:00, 00:00, 06:00, 12:00 7 km 75h 1h
GFS 14:30, 20:30, 02:30, 08:30 25 km 237h 3h
30+ mm
25-30 mm
20-25 mm
15-20 mm
10-15 mm
6-10 mm
4-6 mm
2-4 mm
1-2 mm
0.5-1 mm
0.2-0.5 mm
0.1-0.2 mm
30+ mm
25-30 mm
20-25 mm
15-20 mm
10-15 mm
6-10 mm
4-6 mm
2-4 mm
1-2 mm
0.5-1 mm
0.2-0.5 mm
0.1-0.2 mm
Sneeuwval
Natte sneeuw
Hagel
Vorst
30+ mm
25-30 mm
20-25 mm
15-20 mm
10-15 mm
6-10 mm
4-6 mm
2-4 mm
1-2 mm
0.5-1 mm
0.2-0.5 mm
0.1-0.2 mm
Sneeuwval
Natte sneeuw
Hagel
Vorst
Onweer
50 mm
40 mm
30 mm
26 mm
22 mm
18 mm
14 mm
10 mm
9 mm
8 mm
7 mm
6 mm
5 mm
4.5 mm
4 mm
3.5 mm
3 mm
2.5 mm
2 mm
1.5 mm
1 mm
0.8 mm
0.6 mm
0.4 mm
0.2 mm
0.05 mm
35°
30°
25°
20°
15°
10°
-5°
-10°
-15°
-20°
-25°
-30°
-35°
33> m/s
29 m/s
25 m/s
21 m/s
17 m/s
14 m/s
11 m/s
8 m/s
5 m/s
3 m/s
0 m/s
2600 J/kg
2400 J/kg
2200 J/kg
2000 J/kg
1800 J/kg
1600 J/kg
1400 J/kg
1200 J/kg
1000 J/kg
800 J/kg
600 J/kg
400 J/kg
200 J/kg
70 dBZ
65 dBZ
60 dBZ
55 dBZ
50 dBZ
45 dBZ
40 dBZ
35 dBZ
30 dBZ
25 dBZ
20 dBZ
15 dBZ
10 dBZ
5 dBZ
-1 K
-2 K
-3 K
-4 K
-5 K
-6 K
-7 K
-8 K
-9 K
950 m²/s²
900 m²/s²
850 m²/s²
800 m²/s²
750 m²/s²
700 m²/s²
650 m²/s²
600 m²/s²
550 m²/s²
500 m²/s²
450 m²/s²
400 m²/s²
350 m²/s²
300 m²/s²
250 m²/s²
200 m²/s²
150 m²/s²
100 m²/s²
46 m/s
44 m/s
42 m/s
40 m/s
38 m/s
36 m/s
34 m/s
32 m/s
30 m/s
28 m/s
26 m/s
24 m/s
22 m/s
20 m/s
16 m/s
12 m/s
8 m/s
4 m/s
30 m/s
28 m/s
26 m/s
24 m/s
22 m/s
20 m/s
18 m/s
16 m/s
14 m/s
12 m/s
10 m/s
8 m/s
6 m/s
4 m/s
2 m/s
3.0
2.8
2.6
2.4
2.2
2.0
1.8
1.6
1.4
1.2
1.0
0.8
0.6
0.4
0.2
15
14
13
12
11
10
9
8
7
6
5
4
3
2
1
90%
80%
70%
60%
50%
40%
30%
20%
10%
42
40
38
36
34
32
30
28
26
24
22
20
18
16
14
12
90+ cm
80-90 cm
70-80 cm
60-70 cm
50-60 cm
40-50 cm
30-40 cm
20-30 cm
10-20 cm
1-10 cm
Sneeuwval
Natte sneeuw
Regen
>120 mm
115 mm
110 mm
105 mm
100 mm
95 mm
90 mm
85 mm
80 mm
75 mm
70 mm
65 mm
60 mm
55 mm
50 mm
45 mm
45 mm
40 mm
35 mm
30 mm
25 mm
20 mm
15 mm
10 mm
5 mm
0.1 mm
960 hPa
880 hPa
800 hPa
720 hPa
640 hPa
560 hPa
584 gpdm
568 gpdm
552 gpdm
536 gpdm
520 gpdm
504 gpdm
488 gpdm
Extreem zwaar Noodweer Kans op onweer
15% 15% 5% 50% 15%

Dag




Kaart